Location: Jesenik
(50.2330°N, 17.2000°E)
Time: 19:41:05
(UTC+02:00)

Tiangong 2 - Visible Passes

Search period start: 24 May 2019 00:00
Search period end: 03 June 2019 00:00
Orbit: 379 x 387 km, 42.8° (Epoch: 24 May)

Date Brightness Start Highest point End Pass type
(mag) Time Alt. Az. Time Alt. Az. Time Alt. Az.
24 May 2.6 22:13:45 10° SW 22:16:09 20° S 22:16:55 19° SSE visible
25 May 3.2 22:50:32 10° SW 22:51:43 14° SSW 22:51:43 14° SSW visible
26 May 2.8 21:50:21 10° WSW 21:52:35 18° S 21:54:17 13° SSE visible
27 May 3.4 22:27:41 10° SW 22:28:45 11° SSW 22:29:00 11° SSW visible
